Погода в Шлиппове

Россия / Калужская область     54°10′13″N   35°07′06″E
темп.,
°C
ветер,
м/с
пор.,
м/с
влажн.,
%
обл.,
%
осадки,
мм/ч
давл.,
гПа
погр.,
м
5 августа, чт
чт500:00+17зюз117088 0.0 101714
03:00+14ю228293 0.0 101722
06:00+13юв3485100 0.0 101690
09:00+17ю4774100 0.1 1016452
12:00+14в2596100 3.3 1016211
15:00+21ю696228 3.4 10141055
18:00+20ююз4877100 1.6 1012423
21:00+16юв2290100 2.3 101227
6 августа, пт
пт600:00+16ююв229187 0.4 101131
03:00+15ююз229681 0.7 101135
06:00+16ююв249699 0.3 1010110
09:00+18ю4891100 0.4 1010362
12:00+18вюв3893100 3.2 1009339
15:00+20всв358757 3.2 1009203
18:00+23св3675100 0.1 1007243
21:00+21в4876100 0.1 1006132
7 августа, сб
сб700:00+19юв4118298 0.0 1005295
03:00+18ююз3989100 0.2 1006201
06:00+17ююв1192100 0.1 100620
09:00+21ю4675100 0.1 1007465
12:00+25ююз3565100 0.5 10071189
15:00+24юз457397 1.1 1007876
18:00+22зюз478788 2.3 1008466
21:00+19з4988100 2.4 1010293
8 августа, вс
вс800:00+15зсз3791100 0.0 1012157
03:00+13юз239035 0.0 101432
06:00+13зюз3692100 0.0 1014143
09:00+17з5877100 0.0 1014530
12:00+22з46531 0.0 10151404
15:00+23з34499 0.0 10151643
18:00+23з34560 0.0 1016846
21:00+17зсз22700 0.0 101819
9 августа, пн
пн900:00+15з22745 0.0 101811
03:00+14з11791 0.0 101911
06:00+14юз11798 0.0 101911
09:00+21юв226074 0.0 1019340
12:00+25ю1148100 0.0 10191113
15:00+26юв11445 0.0 10181491
18:00+25вюв12525 0.0 1017660
21:00+19вюв126223 0.0 101811